Location: Cahas Mountain Overlook
(37.0833°N, 80.1000°W)
Time: 13:27:43
(UTC-05:00)

S-56A Canister/Altair - Pass Details

Date: 05 December 2023
Orbit: 639 x 2488 km, 38.9° (Epoch: 02 March)

Event Time Altitude Azimuth Distance (km) Brightness Sun altitude
Rises 16:28:02 0° 284° (WNW) 3,018 11.3 5.2°
Reaches altitude 10° 16:30:10 10° 280° (W) 2,190 10.7 4.8°
Maximum altitude 16:35:02 56° 202° (SSW) 1,003 8.7 4.0°
Drops below altitude 10° 16:41:46 10° 126° (SE) 3,006 10.4 2.9°
Sets 16:45:09 0° 122° (ESE) 4,263 11.1 2.3°
